Wetbulb
50.18 50.22 50.24 50.18 50.23 50.25 48.66 45.58 38.13 54.90 57.91 47.10 47.04 42.41 44.41 46.09 45.74 48.64 47.14 48.34 46.71 46.01 47.26 46.65 46.32 46.23 49.71 52.39 51.93 45.20 48.25 46.06 41.16 44.71 50.37 49.79 47.01 43.64 44.13 38.10 39.04 42.07 37.43 38.02
49.25 49.44 49.64 49.82 49.90 50.08 47.10 41.86 43.03 54.73 55.27 42.00 42.19 45.56 45.71 46.03 44.47 45.10 44.80 45.64 48.36 49.33 46.81 44.17 47.63 48.97 53.13 52.76 51.27 48.14 47.94 43.98 38.98 40.84 45.82 48.42 44.37 47.80 46.82 47.79 45.87 40.85 34.97 39.30
48.82 49.10 49.29 49.47 49.67 50.04 48.11 41.05 39.94 47.71 51.15 49.07 44.19 42.79 43.04 42.52 47.34 46.16 46.94 47.97 48.69 47.28 46.77 49.15 46.59 49.22 52.04 53.28 52.34 48.29 49.74 45.74 42.12 37.48 41.17 45.49 43.46 47.89 48.26 46.66 35.90 41.35 40.38 44.13
48.71 48.92 49.05 49.02 49.70 49.79 46.84 41.38 40.93 44.56 40.48 43.67 41.89 43.22 42.66 40.62 41.19 47.83 48.33 46.69 47.17 45.86 43.29 46.09 45.66 48.76 50.05 51.87 48.65 49.32 48.94 41.61 45.19 46.41 47.39 47.21 46.28 46.53 47.44 45.23 46.47 39.13 43.69 45.02
48.40 48.46 48.70 48.82 49.31 49.14 44.94 37.25 40.48 45.46 43.86 45.31 41.39 41.70 41.61 41.97 42.02 46.24 44.90 45.51 47.38 47.63 44.85 46.60 46.01 48.93 48.04 46.66 48.06 48.28 49.44 42.42 44.54 37.01 47.85 47.35 44.88 46.47 46.59 46.83 47.67 47.05 47.30 44.85
48.16 48.38 48.52 48.86 48.83 47.54 42.53 45.80 48.94 46.48 42.61 43.30 41.12 41.08 42.18 44.35 45.61 47.25 48.65 48.10 46.76 46.61 48.49 51.67 51.45 52.85 51.19 49.92 47.26 47.08 46.50 44.33 41.51 39.16 45.27 45.19 40.38 44.29 45.66 46.62 47.50 47.20 41.56 45.58
47.99 48.02 48.15 48.51 48.87 48.37 44.68 44.63 43.63 43.02 37.37 41.82 41.56 43.80 45.41 45.49 46.11 44.57 47.65 50.28 47.98 50.68 54.68 51.87 51.82 51.04 51.00 51.09 50.64 50.68 45.93 44.47 42.47 36.05 42.59 32.76 43.51 50.32 49.35 46.93 48.06 46.90 46.58 47.00
47.56 47.49 47.88 48.21 48.60 49.03 46.19 45.42 42.09 44.18 39.04 42.10 43.87 43.32 45.37 47.17 47.83 46.11 47.56 50.43 51.95 53.46 50.08 45.58 41.89 41.31 43.90 47.73 49.83 48.43 49.02 44.78 37.13 34.45 35.76 40.90 44.79 47.34 45.23 42.78 42.20 46.94 46.20 46.17
46.87 47.28 47.44 47.06 48.40 48.56 46.16 43.93 44.97 43.69 41.26 41.51 46.35 45.03 46.56 44.06 44.41 45.25 47.81 51.55 53.06 51.62 46.16 42.40 34.05 32.63 38.73 38.64 42.69 48.37 47.96 47.61 40.13 34.20 31.60 31.42 42.33 48.47 49.62 46.85 35.68 46.39 47.04 45.34
46.54 47.02 47.18 46.97 47.68 48.41 46.68 43.57 45.13 41.63 43.23 46.35 46.21 43.83 44.08 47.56 45.36 45.19 46.92 48.29 47.81 49.68 43.15 36.87 32.05 35.17 41.93 36.42 37.17 39.42 40.43 36.43 34.76 30.55 29.65 36.92 46.65 47.18 47.80 33.33 34.88 46.28 47.04 46.62
46.44 46.86 46.58 46.90 47.97 48.53 46.95 43.17 46.74 44.04 45.23 46.73 49.29 50.23 47.48 47.76 47.36 43.63 46.36 45.03 44.62 43.58 40.03 39.34 36.48 36.82 39.54 39.50 42.03 41.13 39.70 34.86 32.55 34.60 30.55 31.39 48.72 45.87 40.38 42.34 46.07 47.01 46.66 46.80
46.10 46.51 46.12 45.73 47.52 47.89 47.35 41.71 46.69 50.61 45.55 41.90 48.27 48.23 49.54 49.28 50.27 47.07 49.00 46.89 46.22 46.49 42.86 43.02 42.84 39.50 40.44 39.06 33.78 45.92 37.25 40.53 38.25 39.31 38.11 47.29 48.95 46.59 49.64 49.51 47.75 47.34 47.45 47.96
46.05 46.40 45.79 45.78 47.01 47.57 46.95 43.94 45.05 46.53 41.88 41.57 44.56 44.22 47.67 51.13 50.27 51.95 46.74 46.92 50.13 48.86 49.93 46.07 44.27 38.77 42.77 36.67 38.54 41.71 45.14 47.77 41.16 41.38 45.11 47.08 48.27 49.42 49.82 49.91 49.00 49.23 49.16 48.59
45.87 46.08 45.42 45.85 46.79 47.13 47.02 43.04 45.05 44.39 42.95 35.22 37.15 45.94 45.26 48.98 52.20 52.82 52.87 50.86 52.26 51.30 49.97 46.01 44.09 40.77 46.12 40.48 42.23 41.07 44.01 46.75 43.25 41.75 45.44 47.31 48.10 48.48 49.07 49.47 49.76 49.39 49.45 48.34
45.86 46.12 45.72 45.82 46.81 46.95 47.08 45.56 45.75 47.10 44.76 33.79 35.75 43.66 44.18 49.21 50.22 50.74 52.55 51.77 49.99 48.53 45.61 44.46 42.98 46.12 43.55 43.64 42.30 39.70 44.71 43.45 40.99 37.99 46.32 45.52 46.49 48.64 50.09 48.91 48.10 48.66 48.00 47.18
45.71 46.05 46.12 46.44 46.47 46.08 45.29 38.17 46.52 48.31 47.47 38.88 33.58 38.56 41.37 47.47 48.11 50.42 49.57 51.07 49.86 49.25 46.54 45.29 46.52 49.19 44.97 38.20 35.98 44.89 47.00 48.15 48.36 46.18 49.15 48.64 49.00 49.01 49.27 48.13 48.39 48.07 47.31 46.68
45.59 45.68 45.99 46.23 45.79 44.00 40.26 36.23 43.60 46.63 47.51 36.22 32.14 33.74 38.81 43.22 48.00 46.75 46.39 48.25 47.49 46.57 45.09 43.86 44.67 45.56 46.44 36.14 36.79 45.07 47.63 48.29 47.89 49.80 49.59 46.58 48.00 46.06 48.66 48.99 48.87 47.74 46.97 47.31
45.00 45.12 44.76 45.61 45.42 44.49 42.32 45.31 46.83 47.33 43.65 41.00 32.47 31.76 35.30 43.16 39.18 38.11 45.29 42.98 44.98 44.19 43.26 44.23 42.99 42.85 41.78 33.53 43.43 45.40 46.53 47.70 47.83 48.10 48.03 47.40 48.21 47.60 46.95 47.26 45.93 45.05 43.82 44.32
44.55 44.87 45.23 43.57 41.52 37.88 40.85 45.89 46.50 46.17 42.27 33.21 33.82 32.42 31.12 41.57 39.72 41.25 41.73 43.69 36.26 43.32 39.00 41.51 42.43 39.88 35.12 41.42 43.83 44.99 46.30 45.35 45.81 47.39 47.45 46.90 45.98 45.96 45.45 43.48 43.20 42.23 42.45 43.08
44.67 43.00 37.91 32.16 37.49 44.01 45.06 40.50 36.00 35.91 37.65 40.81 35.18 38.41 33.47 40.12 38.44 36.46 37.22 40.02 35.34 32.49 38.92 42.29 36.00 35.43 42.81 45.16 45.76 46.24 46.51 47.41 46.71 42.99 41.91 43.45 43.27 42.51 42.34 42.40 42.80 42.71 42.61 42.43
39.25 32.88 32.52 39.66 43.69 39.74 34.26 31.57 31.57 31.39 30.83 36.28 39.45 37.93 36.29 42.06 34.45 34.92 39.54 35.19 36.22 31.33 34.72 33.79 31.17 30.46 37.95 45.22 45.03 45.73 46.44 45.56 44.72 44.81 44.89 44.11 43.65 42.62 41.63 41.97 42.44 42.51 41.61 41.43
38.73 39.07 40.71 38.64 33.52 31.40 30.06 29.82 30.80 31.16 31.63 37.42 37.26 39.02 38.21 39.35 41.40 35.99 38.15 33.17 34.74 30.59 37.56 31.14 28.24 34.13 41.59 43.42 44.45 45.34 44.75 44.29 44.11 44.89 44.65 44.33 44.16 43.46 42.58 41.85 41.38 41.73 41.80 41.45
40.86 37.81 32.69 30.86 30.95 26.14 27.03 25.11 28.42 30.42 33.85 39.21 39.62 36.86 38.19 39.40 39.74 35.48 35.44 31.24 29.40 35.77 26.21 27.58 30.27 38.36 41.43 43.01 43.94 44.14 44.65 43.54 43.52 44.01 44.38 43.78 43.31 43.32 42.32 41.37 41.97 41.95 42.29 41.57
33.05 30.79 26.92 26.86 25.93 25.81 30.21 29.93 30.88 34.11 38.39 40.27 39.53 36.62 36.03 36.23 33.96 33.92 30.54 33.35 32.85 25.42 24.02 26.28 30.55 37.86 41.41 42.42 43.72 42.93 42.54 42.91 42.54 42.43 42.52 42.49 42.55 41.78 42.10 38.41 37.12 33.93 34.08 28.92
31.72 31.21 25.28 26.75 30.73 32.63 33.62 36.53 36.02 40.75 43.05 41.25 37.21 36.50 35.22 33.15 31.87 32.35 32.18 29.20 26.48 28.59 27.28 30.52 35.63 40.00 41.67 41.60 42.27 41.82 41.74 40.24 41.19 41.96 41.41 36.61 36.25 36.43 35.74 34.77 36.19 38.11 33.24 32.96
33.59 32.13 29.80 30.38 30.54 31.00 33.44 35.57 37.93 43.42 42.31 40.46 37.96 33.48 31.47 29.63 30.50 29.05 27.97 27.54 26.67 28.80 31.08 36.49 38.89 40.40 40.80 40.91 41.68 41.82 42.63 41.95 41.87 41.74 40.42 39.15 34.39 35.56 37.83 37.93 37.47 33.71 34.24 33.55
32.11 29.85 33.20 31.07 32.94 33.24 35.76 39.19 41.04 43.97 40.40 33.84 33.12 29.93 30.41 32.28 27.79 27.81 30.34 27.26 29.54 32.58 34.52 38.75 40.43 40.09 40.86 41.50 41.95 40.96 42.53 41.85 41.68 41.86 41.38 40.23 39.51 38.23 39.33 37.32 37.53 35.99 35.11 33.11
MSLP
1015.33 1015.58 1016.07 1016.46 1016.89 1017.25 1017.90 1017.18 1014.93 1013.26 1013.63 1013.13 1011.43 1011.89 1010.92 1011.81 1012.13 1011.70 1011.64 1011.29 1010.41 1010.01 1009.65 1008.92 1008.47 1007.55 1007.18 1007.06 1007.39 1007.25 1008.19 1009.24 1009.70 1009.26 1008.49 1008.20 1008.71 1009.39 1010.15 1011.55 1012.52 1013.01 1012.85 1012.39
1014.46 1014.40 1014.97 1015.39 1016.03 1016.57 1016.92 1015.42 1013.49 1012.23 1011.48 1009.91 1010.16 1010.58 1010.67 1010.93 1011.39 1011.09 1010.99 1010.66 1009.91 1009.66 1009.72 1009.45 1008.51 1007.93 1007.30 1007.52 1007.97 1008.20 1008.37 1009.75 1010.48 1010.47 1010.03 1008.88 1009.14 1009.37 1009.59 1010.45 1012.09 1013.27 1013.28 1012.29
1013.46 1014.07 1014.46 1014.72 1015.02 1015.67 1015.85 1014.84 1012.03 1010.22 1009.75 1008.64 1008.96 1009.66 1009.59 1010.72 1010.80 1010.92 1010.49 1009.66 1010.08 1009.60 1009.41 1008.91 1008.71 1008.48 1008.10 1008.33 1008.51 1008.79 1008.92 1010.31 1011.07 1011.39 1011.38 1010.96 1010.48 1009.28 1009.55 1010.31 1011.80 1012.22 1012.04 1011.87
1013.09 1013.53 1013.61 1013.50 1013.90 1014.46 1015.02 1013.36 1010.29 1009.20 1007.33 1007.88 1007.79 1008.63 1008.91 1009.57 1010.12 1009.56 1009.85 1009.12 1008.50 1008.54 1008.93 1008.70 1008.83 1009.01 1009.21 1008.81 1008.90 1009.27 1009.76 1010.49 1011.31 1011.53 1011.96 1011.23 1011.28 1010.60 1010.87 1010.07 1011.06 1011.72 1011.64 1011.32
1012.49 1012.72 1012.72 1012.48 1013.14 1013.56 1012.92 1012.36 1010.70 1008.98 1006.68 1006.75 1007.47 1008.41 1007.94 1008.17 1008.67 1008.30 1008.19 1007.57 1007.88 1007.79 1007.80 1007.55 1008.18 1008.97 1008.90 1009.02 1009.28 1009.51 1009.71 1010.80 1011.78 1012.43 1012.12 1011.89 1011.31 1010.57 1010.58 1010.53 1010.96 1011.11 1011.08 1010.97
1011.67 1011.66 1011.76 1011.80 1012.00 1012.73 1011.93 1010.95 1009.34 1007.93 1006.34 1006.38 1006.59 1006.68 1006.58 1006.69 1007.67 1007.35 1006.86 1007.06 1007.43 1006.96 1006.40 1007.06 1007.21 1007.65 1008.13 1008.55 1009.18 1009.58 1009.79 1010.59 1011.74 1012.90 1012.62 1012.45 1011.67 1010.35 1009.92 1009.98 1010.17 1010.11 1010.70 1010.22
1010.84 1010.86 1011.05 1011.17 1011.26 1011.37 1011.55 1010.78 1009.71 1007.70 1005.89 1005.59 1005.03 1005.65 1005.60 1006.11 1005.67 1005.91 1006.55 1007.12 1006.84 1006.27 1006.34 1006.85 1007.19 1007.95 1008.40 1008.54 1008.70 1009.26 1009.67 1010.89 1011.99 1013.02 1013.22 1013.03 1010.28 1009.00 1008.96 1009.28 1009.58 1009.72 1009.91 1009.87
1010.09 1010.15 1010.07 1009.70 1009.53 1010.06 1010.08 1009.91 1009.57 1006.21 1005.22 1005.12 1005.04 1005.48 1005.12 1005.29 1005.34 1006.10 1006.63 1006.19 1006.02 1006.35 1007.01 1007.92 1008.95 1009.11 1009.28 1009.42 1009.40 1009.27 1009.60 1010.88 1012.57 1013.35 1013.41 1011.72 1009.88 1008.65 1008.62 1009.06 1009.33 1009.23 1009.74 1010.41
1009.28 1009.36 1009.43 1009.74 1009.31 1008.96 1008.76 1008.95 1009.53 1007.76 1005.21 1003.24 1003.51 1004.27 1004.19 1004.11 1004.20 1006.18 1006.24 1006.28 1005.85 1006.90 1007.46 1007.85 1009.22 1009.23 1008.88 1009.78 1009.56 1009.51 1010.04 1011.08 1012.53 1013.67 1013.36 1011.88 1009.60 1008.45 1008.24 1008.99 1009.83 1009.42 1009.65 1010.34
1008.51 1008.42 1008.71 1009.15 1008.91 1008.51 1008.30 1007.80 1008.75 1008.04 1004.48 1004.32 1004.19 1003.41 1003.52 1004.05 1004.03 1004.86 1005.70 1006.90 1007.25 1007.49 1007.85 1009.27 1009.08 1008.87 1008.10 1009.01 1009.45 1010.14 1010.89 1012.02 1012.98 1013.34 1013.13 1011.53 1009.30 1008.49 1008.19 1009.67 1010.52 1009.46 1009.80 1010.33
1008.02 1007.77 1007.70 1007.85 1007.59 1007.57 1007.31 1005.88 1005.96 1006.71 1003.85 1003.14 1003.39 1003.69 1003.55 1003.55 1003.91 1004.34 1005.28 1006.34 1007.32 1007.81 1007.32 1008.25 1008.30 1008.20 1007.69 1007.97 1008.34 1009.10 1010.42 1011.59 1012.61 1012.84 1012.59 1011.10 1008.98 1008.76 1008.79 1009.22 1009.40 1009.56 1010.03 1010.48
1007.36 1007.30 1007.40 1007.01 1007.02 1007.22 1007.12 1007.15 1005.34 1005.03 1004.50 1004.24 1003.85 1003.77 1003.54 1003.37 1003.04 1003.58 1005.12 1005.10 1006.08 1006.53 1006.45 1007.15 1007.27 1007.27 1007.45 1007.23 1008.35 1008.42 1009.37 1009.36 1010.48 1010.74 1010.23 1009.11 1008.34 1008.45 1008.51 1008.57 1009.19 1009.60 1009.94 1010.67
1006.75 1006.35 1006.09 1006.00 1006.15 1005.97 1005.25 1004.68 1004.83 1004.58 1003.95 1004.99 1003.88 1003.47 1003.66 1003.65 1003.72 1003.70 1004.28 1005.51 1005.59 1005.66 1005.23 1006.12 1006.66 1006.53 1006.57 1006.87 1006.94 1007.53 1007.90 1008.19 1008.89 1009.30 1008.95 1008.53 1008.19 1008.07 1008.32 1008.51 1008.99 1009.43 1009.79 1010.16
1006.32 1006.04 1006.14 1006.20 1005.62 1004.80 1004.59 1005.98 1005.35 1004.73 1003.64 1004.03 1004.62 1004.54 1004.24 1004.21 1004.49 1004.35 1004.46 1004.27 1005.23 1005.67 1005.79 1006.34 1006.82 1006.59 1005.53 1005.94 1005.92 1006.33 1006.49 1007.28 1007.79 1008.28 1007.80 1007.74 1007.78 1008.04 1008.32 1008.61 1008.82 1009.30 1009.66 1010.02
1005.71 1005.67 1005.64 1005.48 1005.48 1005.72 1005.29 1004.71 1003.85 1004.30 1004.35 1004.26 1004.96 1004.85 1005.01 1004.46 1004.28 1004.51 1004.39 1004.71 1005.15 1005.84 1006.34 1006.78 1007.13 1006.64 1005.66 1005.64 1005.72 1005.73 1005.37 1005.90 1006.91 1007.52 1007.36 1007.58 1007.85 1007.92 1008.02 1008.46 1008.92 1009.54 1010.05 1010.27
1005.54 1005.41 1005.48 1005.40 1005.52 1005.17 1004.88 1004.62 1002.37 1002.98 1002.59 1003.34 1004.81 1004.95 1004.58 1004.10 1004.34 1004.86 1005.62 1005.05 1005.36 1005.90 1006.18 1007.03 1007.12 1006.39 1006.22 1006.34 1006.29 1005.26 1004.85 1004.76 1005.24 1006.20 1006.43 1007.00 1007.48 1007.78 1008.01 1008.56 1008.98 1009.83 1010.28 1010.47
1004.98 1004.83 1004.99 1004.89 1004.89 1004.78 1004.48 1003.94 1003.39 1003.20 1002.47 1003.92 1005.21 1004.89 1005.04 1005.49 1005.37 1005.74 1005.89 1005.46 1005.78 1006.36 1007.15 1007.58 1007.47 1007.37 1007.06 1006.99 1006.47 1005.03 1004.62 1004.86 1005.33 1005.38 1005.80 1006.87 1007.16 1007.72 1008.20 1008.67 1008.99 1009.65 1010.32 1010.81
1003.83 1004.19 1004.52 1004.34 1004.38 1003.99 1003.83 1003.09 1003.09 1003.16 1002.04 1003.83 1004.43 1005.52 1005.81 1005.10 1005.28 1005.63 1005.85 1005.96 1006.34 1006.76 1007.42 1007.86 1007.82 1007.25 1007.08 1006.84 1005.84 1004.99 1004.94 1004.80 1005.10 1005.68 1005.85 1006.58 1006.88 1007.42 1008.22 1008.70 1009.32 1010.05 1011.14 1011.50
1003.76 1003.67 1003.83 1003.92 1003.72 1003.38 1002.65 1002.72 1002.62 1002.90 1003.05 1003.16 1003.61 1004.04 1004.89 1004.95 1005.16 1005.85 1006.09 1006.45 1007.51 1007.97 1008.08 1007.82 1007.70 1007.57 1006.81 1005.77 1005.14 1004.97 1005.03 1005.34 1005.40 1005.65 1006.12 1006.56 1007.06 1007.86 1008.38 1009.14 1009.88 1010.76 1011.48 1011.80
1003.58 1004.06 1004.14 1003.84 1003.35 1002.70 1002.63 1003.06 1003.41 1002.92 1002.47 1002.35 1002.56 1002.92 1003.52 1003.84 1004.96 1006.35 1006.87 1007.59 1008.43 1008.62 1008.39 1008.15 1007.80 1006.92 1005.69 1005.07 1004.59 1004.33 1004.38 1004.82 1005.34 1006.03 1006.70 1007.07 1007.53 1008.35 1008.87 1009.55 1010.16 1011.02 1011.82 1012.18
1004.13 1004.15 1004.13 1003.64 1003.54 1003.52 1003.72 1003.27 1002.83 1002.75 1002.17 1001.44 1001.43 1002.18 1001.84 1003.39 1004.29 1005.83 1006.66 1007.75 1008.19 1008.45 1008.50 1008.13 1008.08 1006.43 1004.33 1004.20 1004.27 1003.95 1004.29 1004.96 1005.39 1005.95 1006.65 1007.14 1007.66 1008.34 1009.02 1009.63 1010.34 1011.10 1011.66 1012.16
1003.61 1003.95 1004.12 1003.98 1004.03 1003.61 1003.26 1002.39 1002.17 1001.43 1000.85 1000.18 1000.40 1000.84 1001.40 1002.74 1003.91 1005.54 1006.47 1007.30 1007.67 1008.07 1007.81 1008.25 1007.19 1004.51 1003.18 1003.56 1003.69 1003.82 1004.49 1005.23 1005.59 1005.91 1006.77 1007.47 1007.97 1008.48 1009.18 1010.08 1010.80 1011.18 1011.81 1012.51
1004.05 1004.26 1004.23 1004.20 1003.80 1003.32 1002.27 1001.21 1001.01 1000.62 999.35 998.68 998.98 1000.36 1001.68 1002.78 1004.02 1005.22 1005.98 1007.08 1007.74 1007.67 1008.77 1008.08 1005.28 1003.17 1002.59 1002.52 1002.77 1003.66 1004.35 1005.22 1005.98 1006.39 1006.72 1007.35 1008.19 1009.01 1009.71 1010.42 1010.89 1011.67 1012.55 1013.34
1003.87 1003.57 1003.58 1003.48 1002.55 1001.69 1000.23 999.22 998.70 998.26 997.87 998.18 998.66 999.85 1001.32 1002.92 1004.01 1004.90 1005.79 1007.00 1007.80 1008.49 1008.52 1006.08 1004.18 1003.10 1002.52 1002.51 1002.90 1003.75 1004.53 1005.14 1005.84 1006.50 1007.11 1007.86 1008.76 1009.55 1010.14 1010.84 1011.56 1012.25 1012.96 1013.67
1002.64 1002.18 1002.07 1001.78 1000.73 1000.16 999.48 998.77 998.27 996.86 997.09 997.79 999.28 1000.54 1001.77 1003.11 1004.18 1004.66 1005.66 1007.02 1007.20 1006.40 1004.90 1003.69 1002.88 1002.40 1002.19 1002.62 1003.02 1003.73 1004.40 1004.91 1005.46 1006.21 1007.53 1008.32 1009.02 1010.05 1010.98 1011.58 1011.98 1012.57 1013.21 1013.78
1002.02 1001.66 1001.22 1000.65 1000.26 999.70 998.94 998.06 996.96 996.11 997.29 998.25 999.09 1000.55 1002.15 1003.13 1003.57 1004.09 1004.52 1004.92 1004.23 1003.33 1002.80 1002.10 1001.70 1001.73 1002.17 1002.67 1003.11 1003.78 1004.19 1004.92 1005.62 1006.38 1007.71 1008.81 1009.69 1010.36 1011.14 1011.72 1012.08 1012.85 1013.26 1013.59
1001.39 1000.65 999.89 999.79 999.70 999.16 998.11 997.44 996.52 996.30 997.49 998.33 999.32 1000.39 1001.28 1002.08 1002.96 1003.34 1002.93 1002.41 1001.93 1001.47 1001.86 1001.46 1001.11 1001.48 1002.09 1002.65 1003.45 1004.16 1004.68 1005.44 1006.20 1007.15 1008.11 1008.99 1009.61 1010.38 1011.15 1011.88 1012.02 1012.16 1012.45 1013.03
Wind_Speed
14 14 16 17 17 14 7 8 13 9 21 20 13 23 18 22 21 11 6 8 9 9 10 5 3 7 1 5 3 7 3 5 3 3 8 3 6 9 8 6 3 2 5 5
14 14 16 17 17 14 3 8 11 13 20 23 19 13 23 15 14 19 12 10 11 6 9 5 4 5 4 5 5 1 3 2 3 9 7 5 6 9 8 4 3 13 6 4
14 15 17 16 17 12 11 3 7 9 17 18 25 25 24 27 14 17 18 9 16 10 10 5 2 2 2 0 2 3 4 4 7 9 6 3 7 5 5 6 5 4 5 6
15 18 19 17 16 14 9 6 5 6 9 22 18 25 19 24 18 19 20 14 21 20 7 7 7 4 2 4 5 2 4 4 6 6 6 2 7 10 9 4 3 6 5 3
16 18 18 17 15 11 8 6 7 7 6 22 26 25 24 32 30 19 16 20 23 21 14 7 7 7 7 7 3 3 3 5 5 1 8 10 3 13 5 3 10 5 8 11
16 17 15 17 15 10 4 7 14 5 6 14 23 26 32 29 28 15 24 16 9 15 15 3 7 11 7 4 6 7 7 6 5 5 1 6 8 18 8 2 8 5 6 8
15 16 15 15 17 14 7 7 8 9 9 13 18 27 25 25 32 20 8 17 11 5 11 6 8 9 7 1 3 4 7 7 4 3 6 6 10 12 9 8 13 5 4 3
14 16 12 13 14 16 7 7 5 5 11 15 16 27 27 19 25 24 16 17 11 6 6 7 5 1 3 3 6 6 4 5 4 6 6 5 6 8 7 5 5 4 6 8
13 13 11 11 15 15 4 4 5 10 3 9 22 17 19 13 15 17 4 2 5 6 3 5 7 6 7 7 4 5 6 5 6 2 5 8 8 9 8 6 4 6 6 7
13 13 12 13 13 15 7 5 6 5 8 9 13 11 10 11 6 11 8 6 4 1 4 4 4 5 9 8 9 6 4 3 7 3 3 7 3 5 8 9 9 4 7 9
12 12 11 12 11 13 8 6 3 8 4 3 2 7 14 11 12 10 8 5 2 2 5 5 5 4 6 5 10 9 7 7 4 3 3 7 6 2 10 8 4 7 7 6
12 13 11 13 11 12 11 5 4 9 4 2 2 2 1 2 3 7 9 6 6 5 5 4 4 4 5 7 6 11 7 8 7 9 8 4 4 5 5 7 7 4 7 8
13 12 10 12 14 13 10 2 5 6 4 3 2 3 3 4 4 4 7 1 5 3 1 4 3 3 5 8 6 7 5 8 5 7 7 6 7 5 7 7 7 7 6 5
11 11 7 14 13 12 6 4 3 5 3 3 1 1 3 2 3 3 3 7 5 3 3 4 2 2 3 5 6 6 7 13 7 3 2 7 7 7 7 7 7 5 4 3
11 12 9 16 10 10 8 5 5 4 5 4 2 3 1 4 3 4 1 4 6 3 3 3 3 4 3 2 4 4 5 8 8 6 7 7 5 7 8 7 3 3 6 5
11 12 13 15 6 8 2 4 3 6 5 4 2 2 3 4 3 11 4 2 3 3 4 1 1 3 2 4 3 3 4 5 8 6 8 8 8 6 6 7 7 6 6 4
10 8 7 9 4 1 3 4 3 12 3 5 1 3 3 1 4 2 3 2 3 3 3 3 0 1 2 2 3 4 3 1 4 8 10 6 7 6 7 7 6 8 6 6
8 4 4 5 5 6 5 3 4 7 2 3 4 2 1 1 3 2 1 4 3 5 3 2 3 1 2 2 6 2 3 4 6 7 8 8 8 8 7 7 6 8 6 5
6 2 2 1 2 3 2 4 2 4 2 4 3 6 5 3 3 2 3 4 4 2 1 2 3 2 5 6 7 6 6 3 5 6 7 8 8 7 6 9 9 8 4 6
7 2 0 3 3 8 4 3 2 3 2 3 2 4 4 6 4 3 4 3 3 3 3 3 2 4 5 8 6 6 5 7 7 5 3 5 4 9 8 9 8 7 4 2
1 2 3 2 5 0 1 3 3 2 3 3 4 6 11 3 5 4 4 4 3 3 4 5 3 6 7 11 6 5 5 7 7 8 6 7 10 9 9 8 7 6 2 1
5 3 2 2 2 2 4 3 2 2 3 3 9 11 5 5 5 5 3 3 2 3 3 3 5 6 7 13 12 9 7 7 8 6 7 9 9 8 8 8 7 4 2 1
2 3 2 2 3 5 5 6 3 4 4 7 15 10 5 4 4 4 4 5 2 5 3 6 7 3 7 10 11 10 8 10 8 7 10 10 9 9 8 7 4 3 3 5
4 6 7 4 4 5 6 2 2 5 6 14 12 7 5 3 4 4 6 4 5 3 6 11 4 8 9 7 9 12 13 11 11 9 9 10 10 8 6 6 6 4 3 1
3 2 5 7 5 3 4 4 4 3 13 12 7 5 6 3 5 2 6 6 6 8 7 4 7 8 10 11 13 13 12 9 9 9 9 9 9 8 5 2 3 3 3 3
3 3 4 4 1 4 3 4 4 12 12 5 5 5 5 2 5 5 7 8 8 5 4 4 5 7 9 8 9 8 9 9 7 8 8 8 8 8 6 3 5 4 6 5
3 4 3 1 1 3 4 4 7 13 11 4 4 7 6 5 4 6 7 7 6 5 2 3 7 8 10 9 9 8 8 8 8 7 8 7 6 6 5 5 5 6 7 5
Wind_Direction
239 236 236 241 246 259 268 255 237 209 177 213 213 199 188 203 213 200 247 256 266 256 279 242 242 225 112 21 23 139 151 132 169 260 330 248 181 201 187 137 253 89 143 264
242 248 250 249 246 229 259 259 243 218 196 207 203 182 213 206 200 204 214 235 231 213 241 224 215 278 84 55 20 3 158 66 87 350 339 337 219 242 204 160 117 193 136 264
251 251 253 255 245 242 230 247 239 210 205 205 198 186 195 198 205 209 214 214 234 226 226 214 183 117 346 273 180 125 81 129 151 181 218 98 317 235 213 143 130 170 190 152
246 251 255 263 255 243 268 207 279 201 202 196 193 192 188 199 209 211 207 231 226 220 199 177 201 201 278 249 165 206 153 127 123 150 199 37 283 336 272 121 317 149 225 271
250 251 254 260 237 255 257 229 211 253 154 206 174 191 201 200 199 183 216 216 219 210 218 175 184 220 183 200 144 178 213 160 121 218 193 192 285 302 295 155 188 212 230 227
253 258 257 254 233 223 242 224 242 212 266 194 187 194 195 206 182 214 208 208 215 220 208 148 151 161 165 128 141 206 156 136 105 166 177 326 245 205 235 173 290 226 243 232
251 259 255 258 227 217 263 258 300 200 225 203 197 190 193 199 192 195 210 211 208 231 126 96 55 108 135 176 263 213 152 137 108 156 116 235 238 192 197 204 204 246 307 232
262 258 258 279 261 241 233 258 255 274 204 198 203 204 195 206 186 197 204 204 185 155 121 122 104 87 79 192 237 153 131 117 125 142 177 267 279 203 148 155 260 226 194 127
279 257 252 268 263 241 250 259 271 273 253 213 188 201 193 185 175 192 172 348 42 123 165 96 168 174 160 171 211 201 133 100 119 114 162 200 234 226 159 104 285 288 125 129
281 263 252 265 259 242 222 249 251 295 209 197 201 203 209 203 143 188 108 183 115 58 152 126 160 181 154 160 171 155 124 65 153 148 179 280 266 78 85 111 226 79 113 118
277 268 269 282 261 250 216 281 260 266 282 68 178 186 191 174 194 169 158 112 165 194 127 153 195 152 193 134 158 154 157 144 176 133 110 262 209 111 145 201 135 119 120 125
273 265 270 306 264 264 183 249 243 253 252 145 291 127 147 354 194 143 175 152 150 195 124 185 156 149 162 151 180 163 194 174 177 163 202 215 133 159 151 115 122 120 116 115
281 254 273 296 276 262 200 279 307 254 125 250 176 87 45 6 359 339 135 130 166 186 181 157 195 170 138 169 207 122 200 160 171 112 226 190 195 149 153 139 135 113 116 107
275 245 274 288 268 297 199 227 212 276 75 147 100 276 95 130 262 62 351 116 114 88 54 80 115 199 156 193 163 134 183 168 167 166 103 105 128 137 144 126 126 134 126 126
270 243 262 281 253 277 241 256 259 249 259 142 194 152 45 124 155 129 68 107 107 105 109 112 191 288 60 11 72 178 166 161 169 210 175 137 193 151 129 122 122 71 88 58
257 244 244 261 220 309 222 271 224 239 208 98 120 302 49 59 125 137 52 207 133 126 122 125 272 287 76 108 167 227 146 134 146 167 154 144 139 114 98 104 99 89 74 55
251 233 239 237 217 187 224 200 310 336 295 100 74 19 355 294 110 100 127 43 89 120 126 126 305 179 146 88 168 206 174 129 118 161 126 126 150 151 113 118 93 76 48 52
256 174 255 261 279 279 244 211 274 299 60 95 119 89 39 286 100 81 180 87 16 27 93 95 157 335 83 174 229 300 349 189 164 152 131 148 129 104 97 97 81 70 62 47
188 220 121 335 231 256 328 45 24 282 148 137 173 142 153 195 103 107 55 67 73 6 123 160 96 166 228 198 177 193 229 201 146 119 123 121 122 141 119 99 83 87 57 60
166 83 274 279 231 314 330 2 68 348 283 190 141 107 143 137 112 85 84 95 138 124 219 136 141 243 213 190 198 184 206 203 187 161 177 172 150 130 121 116 106 97 94 61
162 169 231 297 355 23 12 221 191 175 189 180 138 147 123 175 101 114 113 136 162 123 227 128 218 255 204 200 205 172 169 145 125 129 136 112 141 136 129 116 115 120 140 170
166 129 79 7 357 252 229 192 133 213 204 201 139 148 123 105 110 96 104 111 110 135 141 102 250 243 171 186 188 193 183 168 149 147 147 138 133 131 124 127 134 131 181 323
86 221 178 189 184 231 223 167 154 221 190 173 152 135 122 75 92 97 106 102 167 106 74 230 233 259 165 177 192 188 161 148 152 157 142 130 122 118 125 130 128 114 91 101
197 190 175 221 195 241 221 245 167 212 157 145 138 112 102 133 84 129 100 134 105 147 193 231 221 218 184 161 161 148 155 149 148 138 126 126 130 135 126 120 113 111 261 272
239 200 184 217 231 283 266 280 295 149 138 137 117 60 87 82 100 124 116 145 197 210 229 217 194 188 155 147 152 148 148 141 137 134 138 134 128 130 142 170 174 199 201 217
246 229 232 216 261 261 224 231 257 138 143 127 77 100 97 139 146 135 186 163 214 237 200 212 171 156 151 133 130 129 135 134 127 123 131 137 144 153 178 178 213 204 202 208
239 258 274 292 193 267 286 299 185 144 159 152 130 117 178 123 153 195 178 197 202 192 193 149 150 138 136 127 121 122 124 124 125 135 150 168 149 135 150 206 249 214 208 191